Flag for Turkey Weather past 2 weeks in Samsun, Turkey

Now
57 °F

Scattered clouds.


Feels Like: 55 °F
Forecast: 60 / 68 °F
Wind: 8 mph from South

Location: Samsun / Carsamba

Current Time: Jan 31, 2015 at 8:35:29 AM

Latest Report: Jan 31, 2015 at 7:50 AM


Visibility: N/A

Pressure: 29.80 "Hg

Humidity: 33%

Dew point: 28 °F

Location of SamsunLocation

Historic Weather in Samsun — Graph

°F

Samsun temperature yesterday

Maximum temperature yesterday: 66 °F (at 1:50 PM)
Minimum temperature yesterday: 32 °F (at 2:50 AM)
Average temperature yesterday: 52 °F

Past Weeks' High & Low Weather Summary

 TemperatureHumidityPressure
High68 °F (Jan 25, 12:50 PM)100% (Jan 16, 7:50 AM)30.39 "Hg (Jan 16, 7:50 AM)
Low28 °F (Jan 18, 5:50 AM)23% (Jan 25, 12:50 PM)29.74 "Hg (Jan 28, 12:50 PM)
Average46 °F71%30.08 "Hg
* Reported Jan 16 6:50 AM — Jan 31 6:50 AM, Samsun, Weather by CustomWeather, © 2014

Note: Actual official high and low records may vary slightly from our data, if they occured in-between our weather recording intervals... More about our weather records

Advertising

Samsun weather history for previous 24 hours

 ConditionsComfort  
Time TempWeatherWind HumidityBarometerVisibility
6:50 AM
Jan 31
55 °FScattered clouds.9 mph36%29.80 "HgN/A
5:50 AM57 °FPassing clouds.10 mph33%29.77 "HgN/A
4:50 AM55 °FPassing clouds.15 mph38%29.77 "HgN/A
3:50 AM57 °FPassing clouds.15 mph33%29.80 "HgN/A
2:50 AM54 °FPassing clouds.13 mph41%29.80 "HgN/A
1:50 AM57 °FPassing clouds.9 mph36%29.80 "HgN/A
12:50 AM57 °FPassing clouds.16 mph36%29.80 "HgN/A
11:50 PM
Jan 30
59 °FPassing clouds.24 mph34%29.77 "HgN/A
10:50 PM59 °FPassing clouds.14 mph36%29.80 "HgN/A
9:50 PM54 °FPassing clouds.7 mph44%29.80 "HgN/A
8:50 PM55 °FPassing clouds.9 mph41%29.80 "HgN/A
7:50 PM54 °FPassing clouds.9 mph44%29.80 "HgN/A
6:50 PM54 °FPassing clouds.9 mph47%29.80 "HgN/A
5:50 PM54 °FClear.7 mph44%29.77 "Hg10 mi
4:50 PM59 °FPartly cloudy.6 mph34%29.77 "HgN/A
3:50 PM63 °FBroken clouds.7 mph32%29.77 "HgN/A
2:50 PM64 °FBroken clouds.13 mph26%29.77 "HgN/A
1:50 PM66 °FBroken clouds.13 mph26%29.77 "HgN/A
12:50 PM64 °FBroken clouds.8 mph28%29.80 "HgN/A
11:50 AM64 °FBroken clouds.13 mph28%29.80 "HgN/A
10:50 AM63 °FBroken clouds.16 mph32%29.83 "HgN/A
9:50 AM61 °FBroken clouds.12 mph34%29.83 "HgN/A
8:50 AM54 °FBroken clouds.8 mph47%29.83 "HgN/A
Weather by CustomWeather, © 2014

See weather overviewHow to use our weather pages